Content
SEND FEEDBACK

Daily
Averages
Monthly
Summary
United States of America

DURANGO, COLORADO


Home > North America > United States > Colorado
Elevation: 6685 feet     Latitude: 37 09N     Longitude: 107 45W

WEATHER
 
SELECT A DAY
Number of Records: 183,062;   Date Range: 1/1/95 - 8/30/14
 
SHARE

PRINT THIS DATA

[ ← Previous Day ]
WEATHER ALMANAC - SEPTEMBER 8, 2013
[ Next Day → ]
[ °C ]   °F
Weather ElementAverageHighLow
Temperature68.6 °F81 °F (2:53 pm)55 °F (5:53 am)
Dewpoint47.8 °F50 °F (7:53 am)44.1 °F (2:53 pm)
Humidity50.1 %77 % (5:53 am)27 % (2:53 pm)
Barometer29.90 in29.99 in (6:53 am)29.81 in (4:53 pm)
Wind Speed5.1 mph10.4 mph (11:53 am)
Wind Gust16.1 mph (11:53 am)
Weather ElementAverage
Visibility10 mi
Wind DirectionESE (102.6 °)

Weather ElementTotal
Precipitation---
Cooling Degree Days3 (Base 65)
Growing Degree Days18 (Base 50)
Averaged from 23 records on September 8, 2013
WEATHER CONDITIONS BREAKOUT
WIND DIRECTION BREAKOUT
WEATHER BY HOUR - SEPTEMBER 8, 2013
[ °C ]   °F
Local TimeTemperatureDewpointHumidityBarometerVisibilityWind DirectionWind SpeedGust SpeedPrecipitationEventsConditions
1:53 AM66.0 °F46.9 °F50 %29.95 in10.0 miCalmOvercast
2:53 AM64.9 °F48.0 °F54 %29.96 in10.0 miEast (90°)5.8 mphOvercast
3:53 AM62.1 °F48.9 °F62 %29.95 in10.0 miENE (60°)5.8 mphPartly Cloudy
4:53 AM59.0 °F48.9 °F69 %29.96 in10.0 miENE (60°)4.6 mphMostly Cloudy
5:53 AM55.0 °F48.0 °F77 %29.97 in10.0 miENE (60°)3.5 mphClear
6:53 AM55.0 °F48.0 °F77 %29.99 in10.0 miNorth (10°)3.5 mphClear
7:53 AM61.0 °F50.0 °F67 %29.98 in10.0 miCalmClear
8:53 AM64.9 °F48.9 °F56 %29.98 in10.0 miCalmClear
9:53 AM70.0 °F48.0 °F46 %29.96 in10.0 miVariable4.6 mph
10:53 AM73.0 °F48.0 °F41 %29.94 in10.0 miVariable4.6 mphClear
11:53 AM77.0 °F48.0 °F36 %29.92 in10.0 miESE (110°)10.4 mph16.1 mphScattered Clouds
12:53 PM75.9 °F46.9 °F36 %29.91 in10.0 miWest (280°)5.8 mphOvercast
1:53 PM79.0 °F46.0 °F31 %29.87 in10.0 miCalmPartly Cloudy
2:53 PM81.0 °F44.1 °F27 %29.83 in10.0 miVariable4.6 mphPartly Cloudy
3:53 PM80.1 °F46.0 °F30 %29.82 in10.0 miSSW (210°)9.2 mphScattered Clouds
4:53 PM80.1 °F44.1 °F28 %29.81 in10.0 miWSW (250°)8.1 mphClear
5:53 PM75.9 °F46.9 °F36 %29.83 in10.0 miWSW (250°)8.1 mphClear
6:53 PM73.0 °F50.0 °F44 %29.85 in10.0 miWSW (240°)8.1 mphClear
7:53 PM70.0 °F50.0 °F49 %29.84 in10.0 miWSW (240°)9.2 mphClear
8:53 PM68.0 °F48.9 °F50 %29.84 in10.0 miSW (230°)4.6 mphClear
9:53 PM66.0 °F48.9 °F54 %29.84 in10.0 miCalmClear
10:53 PM64.0 °F48.9 °F58 %29.87 in10.0 miSW (220°)9.2 mphClear
11:53 PM55.9 °F48.0 °F75 %29.89 in10.0 miNE (50°)8.1 mphClear
Hourly data recorded from KDRO, located miles away from Durango, Colorado







STORIES FROM OUR PARTNERS